Radiation Dose at Monitoring Post of Fukushima Daini Nuclear Power Station
Date,Time,MP-1(microSv/h),MP-2(microSv/h),MP-3(microSv/h),MP-4(microSv/h),MP-5(microSv/h),MP-6(microSv/h),MP-7(microSv/h),Wind Direction,Wind Velocity(m/s),Rain
2019/05/13,00:00,0.201,0.189,0.308,0.288,0.275,0.153,0.094,north,2.3,No
2019/05/13,00:10,0.203,0.188,0.309,0.289,0.275,0.154,0.093,north-northeast,1.2,No
2019/05/13,00:20,0.200,0.189,0.308,0.291,0.274,0.152,0.093,north-northwest,1.1,No
2019/05/13,00:30,0.200,0.190,0.308,0.289,0.274,0.153,0.094,north-northwest,1.1,No
2019/05/13,00:40,0.201,0.189,0.309,0.288,0.275,0.153,0.094,north,1.3,No
2019/05/13,00:50,0.201,0.189,0.308,0.289,0.274,0.153,0.094,north,1.4,No
2019/05/13,01:00,0.201,0.189,0.308,0.290,0.273,0.152,0.093,north-northeast,1.3,No
2019/05/13,01:10,0.200,0.188,0.308,0.290,0.275,0.153,0.094,north-northeast,1.3,No
2019/05/13,01:20,0.201,0.189,0.309,0.289,0.274,0.153,0.094,north-northeast,1.0,No
2019/05/13,01:30,0.201,0.188,0.308,0.290,0.276,0.152,0.093,north,1.6,No
2019/05/13,01:40,0.202,0.190,0.308,0.288,0.275,0.153,0.093,north,2.1,No
2019/05/13,01:50,0.201,0.189,0.307,0.290,0.275,0.153,0.093,north,2.0,No
2019/05/13,02:00,0.201,0.188,0.310,0.289,0.275,0.153,0.094,north-northeast,1.7,No
2019/05/13,02:10,0.201,0.189,0.307,0.291,0.275,0.153,0.093,north-northeast,2.1,No
2019/05/13,02:20,0.202,0.189,0.308,0.289,0.275,0.153,0.094,north-northeast,2.6,No
2019/05/13,02:30,0.201,0.189,0.310,0.288,0.274,0.153,0.093,north-northeast,3.0,No
2019/05/13,02:40,0.200,0.189,0.307,0.289,0.274,0.152,0.093,north-northeast,2.8,No
2019/05/13,02:50,0.202,0.189,0.309,0.289,0.275,0.152,0.093,north-northeast,2.3,No
2019/05/13,03:00,0.201,0.189,0.309,0.289,0.274,0.153,0.094,north-northeast,2.1,No
2019/05/13,03:10,0.202,0.189,0.309,0.289,0.275,0.152,0.094,north,3.0,No
2019/05/13,03:20,0.201,0.189,0.308,0.289,0.276,0.152,0.093,north-northwest,3.1,No
2019/05/13,03:30,0.201,0.188,0.307,0.290,0.275,0.153,0.093,north-northwest,3.8,No
2019/05/13,03:40,0.201,0.189,0.309,0.290,0.274,0.152,0.093,north-northwest,4.5,No
2019/05/13,03:50,0.202,0.189,0.308,0.288,0.275,0.153,0.094,north,5.3,No
2019/05/13,04:00,0.201,0.190,0.307,0.288,0.274,0.152,0.093,north-northwest,3.5,No
2019/05/13,04:10,0.201,0.188,0.309,0.290,0.274,0.152,0.093,north-northwest,3.7,No
2019/05/13,04:20,0.200,0.188,0.309,0.289,0.276,0.153,0.093,north-northwest,4.0,No
2019/05/13,04:30,0.202,0.189,0.308,0.289,0.274,0.152,0.094,north-northwest,3.8,No
2019/05/13,04:40,0.201,0.189,0.308,0.289,0.274,0.152,0.093,north,4.3,No
2019/05/13,04:50,0.201,0.188,0.309,0.288,0.274,0.153,0.094,north,4.2,No
2019/05/13,05:00,0.202,0.189,0.307,0.288,0.273,0.152,0.092,north-northwest,3.5,No
2019/05/13,05:10,0.200,0.187,0.308,0.288,0.275,0.153,0.093,north,5.0,No
2019/05/13,05:20,0.201,0.188,0.308,0.288,0.276,0.153,0.094,north,4.2,No
2019/05/13,05:30,0.201,0.189,0.307,0.290,0.274,0.152,0.093,north,3.2,No
2019/05/13,05:40,0.200,0.189,0.308,0.289,0.276,0.153,0.093,north-northwest,3.3,No
2019/05/13,05:50,0.201,0.188,0.308,0.288,0.273,0.153,0.093,north-northwest,2.9,No
2019/05/13,06:00,0.203,0.189,0.307,0.287,0.275,0.153,0.093,north-northwest,3.6,No
2019/05/13,06:10,0.201,0.188,0.309,0.289,0.277,0.153,0.093,north-northwest,2.8,No
2019/05/13,06:20,0.202,0.187,0.307,0.288,0.274,0.153,0.093,north-northwest,2.4,No
2019/05/13,06:30,0.201,0.188,0.307,0.287,0.276,0.153,0.093,northwest,1.7,No
2019/05/13,06:40,0.200,0.189,0.309,0.288,0.273,0.153,0.093,north-northwest,2.1,No
2019/05/13,06:50,0.200,0.188,0.306,0.288,0.277,0.152,0.093,north,1.8,No
2019/05/13,07:00,0.200,0.187,0.306,0.289,0.275,0.152,0.092,northeast,1.4,No
2019/05/13,07:10,0.201,0.189,0.308,0.288,0.275,0.152,0.094,northeast,2.3,No
2019/05/13,07:20,0.201,0.188,0.307,0.286,0.275,0.152,0.093,east-northeast,2.4,No
2019/05/13,07:30,0.200,0.188,0.307,0.288,0.275,0.152,0.093,east-northeast,1.9,No
2019/05/13,07:40,0.201,0.187,0.305,0.286,0.277,0.152,0.093,northeast,1.6,No
2019/05/13,07:50,0.201,0.187,0.306,0.286,0.273,0.152,0.093,northeast,1.7,No
2019/05/13,08:00,0.202,0.187,0.305,0.286,0.276,0.151,0.093,east-northeast,2.2,No
2019/05/13,08:10,0.200,0.188,0.308,0.285,0.274,0.152,0.094,east-northeast,2.3,No
2019/05/13,08:20,0.201,0.188,0.306,0.288,0.276,0.152,0.093,east-northeast,2.4,No
2019/05/13,08:30,0.199,0.189,0.308,0.284,0.273,0.152,0.094,northeast,2.9,No
2019/05/13,08:40,0.201,0.186,0.309,0.288,0.275,0.152,0.093,northeast,3.3,No
2019/05/13,08:50,0.199,0.187,0.309,0.286,0.274,0.152,0.093,east-northeast,3.0,No
2019/05/13,09:00,0.202,0.187,0.308,0.285,0.276,0.151,0.093,east-northeast,2.2,No
2019/05/13,09:10,0.200,0.187,0.309,0.289,0.273,0.153,0.093,east,2.9,No
2019/05/13,09:20,0.201,0.189,0.308,0.288,0.276,0.151,0.093,east-southeast,2.1,No
2019/05/13,09:30,0.198,0.188,0.307,0.285,0.276,0.152,0.092,east-northeast,2.2,No
2019/05/13,09:40,0.201,0.187,0.309,0.287,0.274,0.152,0.093,east,2.5,No
2019/05/13,09:50,0.201,0.188,0.307,0.287,0.275,0.153,0.093,east-northeast,3.0,No
2019/05/13,10:00,0.201,0.187,0.309,0.285,0.273,0.153,0.093,east-northeast,2.5,No
2019/05/13,10:10,0.199,0.188,0.307,0.288,0.277,0.153,0.093,east,2.4,No
2019/05/13,10:20,0.201,0.187,0.308,0.287,0.273,0.153,0.093,east-northeast,2.4,No
2019/05/13,10:30,0.201,0.189,0.304,0.286,0.276,0.152,0.093,east-northeast,2.6,No
2019/05/13,10:40,0.200,0.187,0.309,0.289,0.275,0.153,0.093,east-northeast,2.6,No
2019/05/13,10:50,0.201,0.189,0.306,0.286,0.274,0.152,0.094,east,2.8,No
2019/05/13,11:00,0.199,0.188,0.305,0.287,0.275,0.153,0.093,east,2.3,No
2019/05/13,11:10,0.201,0.189,0.309,0.289,0.273,0.152,0.093,east,2.5,No
2019/05/13,11:20,0.198,0.187,0.304,0.285,0.277,0.153,0.093,east,1.8,No
2019/05/13,11:30,0.201,0.190,0.306,0.285,0.273,0.152,0.093,east,2.7,No
2019/05/13,11:40,0.200,0.187,0.306,0.288,0.273,0.152,0.093,east,3.0,No
2019/05/13,11:50,0.200,0.188,0.305,0.287,0.276,0.152,0.093,east,3.2,No
2019/05/13,12:00,0.200,0.188,0.306,0.287,0.273,0.151,0.093,east,3.0,No
2019/05/13,12:10,0.200,0.188,0.307,0.288,0.275,0.152,0.092,east,3.4,No
2019/05/13,12:20,0.202,0.187,0.305,0.285,0.275,0.152,0.093,east,3.3,No
2019/05/13,12:30,0.199,0.188,0.306,0.288,0.274,0.152,0.092,east,2.7,No
2019/05/13,12:40,0.201,0.188,0.309,0.290,0.276,0.152,0.093,east-southeast,3.1,No
2019/05/13,12:50,0.201,0.189,0.305,0.287,0.272,0.152,0.094,east-northeast,2.1,No
2019/05/13,13:00,0.200,0.188,0.306,0.288,0.275,0.152,0.093,east,3.0,No
2019/05/13,13:10,0.201,0.187,0.307,0.290,0.275,0.151,0.093,east,3.0,No
2019/05/13,13:20,0.199,0.189,0.306,0.287,0.274,0.152,0.093,east,2.8,No
2019/05/13,13:30,0.202,0.188,0.306,0.288,0.276,0.152,0.093,east,3.6,No
2019/05/13,13:40,0.200,0.188,0.309,0.289,0.274,0.152,0.092,east,2.5,No
2019/05/13,13:50,0.201,0.187,0.306,0.287,0.275,0.154,0.094,east,2.6,No
2019/05/13,14:00,0.201,0.187,0.305,0.289,0.277,0.152,0.093,east,3.2,No
2019/05/13,14:10,0.201,0.188,0.309,0.288,0.274,0.152,0.093,east,3.1,No
2019/05/13,14:20,0.202,0.188,0.307,0.286,0.275,0.153,0.093,east,2.9,No
2019/05/13,14:30,0.199,0.188,0.304,0.288,0.277,0.152,0.092,east,2.4,No
2019/05/13,14:40,0.201,0.188,0.309,0.289,0.274,0.152,0.093,east,2.5,No
2019/05/13,14:50,0.201,0.188,0.307,0.288,0.276,0.152,0.093,east,2.7,No
2019/05/13,15:00,0.201,0.189,0.306,0.290,0.276,0.153,0.094,east-southeast,2.5,No
2019/05/13,15:10,0.201,0.188,0.311,0.290,0.272,0.151,0.093,east-southeast,2.7,No
2019/05/13,15:20,0.199,0.189,0.307,0.290,0.276,0.153,0.092,-,-,No
2019/05/13,15:30,0.202,0.189,0.307,0.290,0.275,0.152,0.093,-,-,No
2019/05/13,15:40,0.200,0.188,0.308,0.289,0.274,0.152,0.093,-,-,No
2019/05/13,15:50,0.201,0.188,0.308,0.290,0.278,0.152,0.093,-,-,No
2019/05/13,16:00,0.201,0.190,0.309,0.288,0.275,0.152,0.093,-,-,No
2019/05/13,16:10,0.201,0.188,0.309,0.290,0.273,0.153,0.093,-,-,No
2019/05/13,16:20,0.201,0.188,0.310,0.289,0.276,0.152,0.094,-,-,No
2019/05/13,16:30,0.200,0.190,0.310,0.289,0.276,0.153,0.093,-,-,No
2019/05/13,16:40,0.202,0.189,0.308,0.289,0.271,0.153,0.092,-,-,No
2019/05/13,16:50,0.200,0.190,0.310,0.289,0.277,0.153,0.093,-,-,No
2019/05/13,17:00,0.203,0.189,0.309,0.290,0.274,0.151,0.093,-,-,No
2019/05/13,17:10,0.201,0.188,0.310,0.289,0.277,0.153,0.093,-,-,No
2019/05/13,17:20,0.201,0.191,0.310,0.289,0.276,0.152,0.093,-,-,No
2019/05/13,17:30,0.202,0.190,0.308,0.289,0.278,0.154,0.093,-,-,No
2019/05/13,17:40,0.201,0.189,0.309,0.289,0.275,0.153,0.094,-,-,No
2019/05/13,17:50,0.201,0.190,0.308,0.290,0.277,0.153,0.093,-,-,No
2019/05/13,18:00,0.202,0.189,0.309,0.288,0.275,0.153,0.093,-,-,No
2019/05/13,18:10,0.202,0.189,0.308,0.290,0.277,0.153,0.094,-,-,No
2019/05/13,18:20,0.200,0.188,0.308,0.288,0.275,0.153,0.092,-,-,No
2019/05/13,18:30,0.202,0.188,0.308,0.288,0.277,0.152,0.093,-,-,No
2019/05/13,18:40,0.201,0.189,0.307,0.290,0.277,0.153,0.093,-,-,No
2019/05/13,18:50,0.201,0.189,0.310,0.289,0.275,0.153,0.093,-,-,No
2019/05/13,19:00,0.201,0.189,0.310,0.289,0.277,0.152,0.094,-,-,No
2019/05/13,19:10,0.200,0.190,0.309,0.290,0.276,0.153,0.093,-,-,No
2019/05/13,19:20,0.202,0.189,0.309,0.288,0.277,0.152,0.093,-,-,No
2019/05/13,19:30,0.202,0.189,0.309,0.291,0.274,0.154,0.093,-,-,No
2019/05/13,19:40,0.201,0.189,0.308,0.289,0.276,0.153,0.094,-,-,No
2019/05/13,19:50,0.201,0.189,0.310,0.289,0.276,0.153,0.094,-,-,No
2019/05/13,20:00,0.200,0.191,0.308,0.289,0.274,0.153,0.094,-,-,No
2019/05/13,20:10,0.203,0.189,0.308,0.289,0.277,0.153,0.093,-,-,No
2019/05/13,20:20,0.200,0.189,0.308,0.289,0.275,0.153,0.093,-,-,No
2019/05/13,20:30,0.202,0.190,0.309,0.291,0.276,0.152,0.093,-,-,No
2019/05/13,20:40,0.202,0.189,0.310,0.289,0.274,0.154,0.093,-,-,No
2019/05/13,20:50,0.202,0.189,0.309,0.290,0.276,0.154,0.093,-,-,No
2019/05/13,21:00,0.201,0.190,0.309,0.288,0.276,0.153,0.092,-,-,No
2019/05/13,21:10,0.201,0.190,0.309,0.288,0.274,0.154,0.094,-,-,No
2019/05/13,21:20,0.203,0.191,0.309,0.289,0.277,0.154,0.094,-,-,No
2019/05/13,21:30,0.201,0.189,0.311,0.289,0.275,0.153,0.094,-,-,No
2019/05/13,21:40,0.202,0.190,0.310,0.290,0.276,0.153,0.094,-,-,No
2019/05/13,21:50,0.202,0.191,0.308,0.290,0.276,0.153,0.095,-,-,No
2019/05/13,22:00,0.202,0.190,0.310,0.290,0.275,0.153,0.093,-,-,No
2019/05/13,22:10,0.203,0.190,0.309,0.290,0.278,0.154,0.094,-,-,No
2019/05/13,22:20,0.202,0.190,0.308,0.290,0.276,0.155,0.093,-,-,No
2019/05/13,22:30,0.202,0.190,0.310,0.289,0.276,0.153,0.093,-,-,No
2019/05/13,22:40,0.203,0.190,0.310,0.291,0.274,0.153,0.094,-,-,No
2019/05/13,22:50,0.201,0.190,0.309,0.290,0.275,0.154,0.094,-,-,No
2019/05/13,23:00,0.201,0.190,0.310,0.290,0.277,0.153,0.094,-,-,No
2019/05/13,23:10,0.203,0.189,0.309,0.290,0.275,0.153,0.095,-,-,No
2019/05/13,23:20,0.201,0.191,0.310,0.290,0.276,0.154,0.094,-,-,No
2019/05/13,23:30,0.202,0.190,0.309,0.289,0.276,0.154,0.093,-,-,No
2019/05/13,23:40,0.203,0.191,0.309,0.291,0.276,0.153,0.094,-,-,No
2019/05/13,23:50,0.202,0.191,0.309,0.290,0.275,0.153,0.094,-,-,No
